Airfield :
LOGIN :

Register | Disclaimer

   EN    FR    IT 

 










Legend :    VFR   Marginal VFR   IFR   Intensive IFR   Very Intensive IFR
Visi :
Ceiling :
>= 8 km
>= 3000ft
5 to 8 km
1000 to 3000 ft
1500m to 5 km
500 to 1000 ft
800 to 1500m
200 to 500 ft
< 800m
< 200 ft
Symbols :   Thunderstorms  Fog  Heavy snow  Heavy precipitations  Wind > 20 kt
SIGMETs :     Misc.  Thunderstorms  Icing  Turbulence  Mountain Waves  Volcanic Ashes






- Airport Elevation : 681 ft
- IATA code : LBA


EGNM - Leeds Bradford

CURRENT METAR :
  • 181950Z 27007KT CAVOK 11/03 Q1012

EXPIRED METARs :
  • 181920Z 27008KT CAVOK 12/03 Q1012
  • 181850Z 27011KT 240V300 CAVOK 12/03 Q1012
  • 181820Z 27013KT 9999 FEW047 13/03 Q1012

TAF TAF EGNM
Valid from the 18 at 18:00 until the 19 at 18:00 UTC


181700Z 1818/1918 29009KT 9999 SCT020
TEMPO 1909/1918 6000 SHRA
PROB30
TEMPO 1910/1918 3000 +SHRA TSGS
ATIS : +44 113 250 9696 (x2489)



MET'MAP, your aeronautical weather chart ! - Copyright ORBIFLY December 2007 - Disclaimer

ORBIFLY MET'MAP TEAM :

Programming & Development : Alexandra Zaïnal
Concept & original design : Baudouin d'Aumeries
Assistance for programming : Marc-Olivier Méhu
Technical & hardware support : Manuel Goepfert

Contact : metmap@orbifly.com




SOURCES & CREDITS :

   NOAA